Terug naar catalogus

STARLINK-37032

ActiefCommunicatieVLEO
NORAD 68181·PAYLOAD·🇺🇸 United States

Gelanceerd Mar 14, 2026 vanaf Vandenberg Space Force Base

Loading…

Volgende Passages (komende 24 uur)

TLE

VersSource: CelesTrak SupGP

Epoch: Sep 15, 2026, 02:40 UTC

1 68181C 26050Q   26258.11159722  .00011963  00000+0  35352-3 0  2586
2 68181  53.1560 103.0527 0001262  86.7728  99.7608 15.34379262    15

Volg STARLINK-37032 in realtime met AllMySat

Download on the App Store